Winston-Salem, NC

5:07 AM EDT on April 24, 2017 (GMT -0400)
Smith Reynolds

Weather History for KINT - June, 2013

Change the Weather History Date:

Thursday, June 6, 2013

  Actual Average Record
Temperature  
Mean Temperature 68 °F -  
Max Temperature 73 °F 79 °F 96 °F (2008)
Min Temperature 64 °F 61 °F 42 °F (1976)
Cooling Degree Days 4    
Growing Degree Days 18 (Base 50)    
Moisture  
Dew Point 67 °F    
Average Humidity 94    
Maximum Humidity 100    
Minimum Humidity 88    
Precipitation  
Precipitation 2.18 in - - ()
Sea Level Pressure  
Sea Level Pressure 29.91 in    
Wind  
Wind Speed 5 mph (SSE)    
Max Wind Speed 10 mph    
Max Gust Speed -    
Visibility 5 miles    
Events Fog , Rain    
Averages and records for this station are not official NWS values.
T = Trace of Precipitation, MM = Missing Value Source: NWS Daily Summary

Daily Weather History Graph

Daily Weather History Graph

Search for Another Location

Airport or City:

Trip Planner

Search our weather history database for the weather conditions in past years. The results will help you decide how hot, cold, wet, or windy it might be!

Date:

Astronomy

Jun. 06, 2013 Rise Set
Actual Time 6:03 AM EDT 8:35 PM EDT
Civil Twilight 5:33 AM EDT 9:05 PM EDT
Nautical Twilight 4:56 AM EDT 9:42 PM EDT
Astronomical Twilight 4:15 AM EDT 10:24 PM EDT
Moon 4:41 AM EDT (6/6) 6:58 PM EDT (6/6)
Length of Visible Light 15h 31m
Length of Day
14h 31m
Waning Crescent, 4% of the Moon is Illuminated
Jun 6
Waning Crescent
Jun 8
New
Jun 16
First Quarter
Jun 23
Full
Jun 30
Last Quarter

Hourly Weather History & Observations

Time (EDT) Temp. Dew Point Humidity Pressure Visibility Wind Dir Wind Speed Gust Speed Precip Events Conditions
12:51 AM 66.2 °F 64.4 °F 94% 30.05 in 2.5 mi Calm Calm - 0.10 in Rain Rain
12:54 AM 66.0 °F 64.0 °F 93% 30.02 in 2.5 mi SE 3.5 mph - 0.12 in Rain Rain
1:03 AM 64.4 °F 62.6 °F 94% 30.05 in 1.5 mi ESE 5.8 mph - 0.16 in Rain Heavy Rain
1:18 AM 64.4 °F 62.6 °F 94% 30.03 in 1.5 mi East 5.8 mph - 0.43 in Rain Heavy Rain
1:46 AM 64.4 °F 62.6 °F 94% 30.02 in 3.0 mi North 3.5 mph - 0.66 in Rain Light Rain
1:54 AM 64.9 °F 63.0 °F 93% 30.00 in 4.0 mi WSW 4.6 mph - 0.69 in Rain Rain
2:19 AM 64.4 °F 62.6 °F 94% 30.01 in 7.0 mi ESE 8.1 mph - 0.03 in Rain Light Rain
2:44 AM 64.4 °F 62.6 °F 94% 30.00 in 8.0 mi ESE 5.8 mph - 0.03 in   Overcast
2:54 AM 64.9 °F 63.0 °F 93% 29.98 in 8.0 mi East 5.8 mph - 0.03 in   Overcast
3:13 AM 64.4 °F 64.4 °F 100% 29.99 in 2.5 mi East 5.8 mph - 0.09 in Rain Rain
3:20 AM 64.4 °F 64.4 °F 100% 29.99 in 4.0 mi ESE 6.9 mph - 0.10 in Rain Light Rain
3:54 AM 64.9 °F 64.0 °F 97% 29.96 in 7.0 mi ESE 10.4 mph - 0.11 in Rain Light Rain
4:24 AM 64.4 °F 64.4 °F 100% 29.98 in 7.0 mi SSE 5.8 mph - 0.00 in   Overcast
4:54 AM 64.9 °F 64.0 °F 97% 29.94 in 6.0 mi SE 6.9 mph - 0.00 in Rain Light Rain
5:16 AM 66.2 °F 64.4 °F 94% 29.96 in 5.0 mi SE 9.2 mph - 0.00 in   Overcast
5:54 AM 66.0 °F 64.9 °F 96% 29.94 in 3.0 mi SE 10.4 mph - 0.00 in   Overcast
6:03 AM 66.2 °F 64.4 °F 94% 29.96 in 2.5 mi SE 8.1 mph - 0.00 in Rain Light Rain
6:24 AM 66.2 °F 64.4 °F 94% 29.96 in 1.2 mi SE 10.4 mph - 0.01 in Rain Light Rain
6:33 AM 66.2 °F 64.4 °F 94% 29.96 in 0.5 mi SE 9.2 mph - 0.01 in Fog , Rain Light Rain
6:49 AM 66.2 °F 64.4 °F 94% 29.96 in 1.0 mi SE 8.1 mph - 0.01 in   Overcast
6:54 AM 66.0 °F 64.9 °F 96% 29.94 in 1.0 mi SE 8.1 mph - 0.01 in   Overcast
7:35 AM 66.2 °F 66.2 °F 100% 29.95 in 0.8 mi SE 5.8 mph - 0.12 in Rain Rain
7:42 AM 66.2 °F 66.2 °F 100% 29.95 in 1.5 mi SE 5.8 mph - 0.16 in Rain Rain
7:52 AM 66.2 °F 66.2 °F 100% 29.95 in 2.0 mi SW 3.5 mph - 0.17 in Rain Light Rain
7:54 AM 66.9 °F 66.0 °F 97% 29.93 in 2.0 mi SSW 4.6 mph - 0.18 in Rain Light Rain
8:01 AM 66.2 °F 66.2 °F 100% 29.95 in 1.8 mi SE 4.6 mph - 0.01 in Rain Rain
8:06 AM 66.2 °F 66.2 °F 100% 29.95 in 3.0 mi SSE 5.8 mph - 0.01 in Rain Light Rain
8:54 AM 68.0 °F 66.0 °F 93% 29.93 in 4.0 mi SSE 6.9 mph - 0.01 in   Overcast
9:54 AM 68.0 °F 66.9 °F 96% 29.93 in 4.0 mi SSE 5.8 mph - N/A   Overcast
10:25 AM 69.8 °F 66.2 °F 88% 29.94 in 6.0 mi SSE 6.9 mph - N/A   Overcast
10:54 AM 70.0 °F 68.0 °F 93% 29.92 in 6.0 mi SE 8.1 mph - N/A   Overcast
11:54 AM 70.0 °F 68.0 °F 93% 29.91 in 4.0 mi SSE 8.1 mph - 0.02 in Rain Light Rain
12:54 PM 71.1 °F 69.1 °F 93% 29.89 in 5.0 mi SE 5.8 mph - 0.01 in Rain Light Rain
1:08 PM 71.6 °F 69.8 °F 94% 29.91 in 1.8 mi SSE 6.9 mph - 0.04 in Rain Rain
1:16 PM 71.6 °F 69.8 °F 94% 29.90 in 3.0 mi SSE 6.9 mph - 0.05 in Rain Light Rain
1:54 PM 72.0 °F 70.0 °F 93% 29.87 in 10.0 mi South 3.5 mph - 0.09 in   Overcast
2:01 PM 73.4 °F 69.8 °F 88% 29.89 in 10.0 mi Variable 3.5 mph - N/A   Overcast
2:48 PM 73.4 °F 69.8 °F 88% 29.88 in 1.5 mi Calm Calm - 0.06 in Rain Rain
2:54 PM 72.0 °F 70.0 °F 93% 29.85 in 0.8 mi Calm Calm - 0.17 in Rain Heavy Rain
3:11 PM 71.6 °F 69.8 °F 94% 29.88 in 0.2 mi Calm Calm - 0.50 in Fog , Rain Heavy Rain
3:23 PM 71.6 °F 69.8 °F 94% 29.87 in 1.0 mi Variable 3.5 mph - 0.63 in Rain Rain
3:28 PM 71.6 °F 69.8 °F 94% 29.87 in 3.0 mi Variable 4.6 mph - 0.64 in Rain Light Rain
3:54 PM 72.0 °F 70.0 °F 93% 29.83 in 10.0 mi SE 3.5 mph - 0.64 in   Overcast
4:46 PM 71.6 °F 69.8 °F 94% 29.85 in 4.0 mi Calm Calm - 0.03 in Rain Rain
4:54 PM 72.0 °F 70.0 °F 93% 29.83 in 6.0 mi SSE 3.5 mph - 0.04 in Rain Light Rain
4:57 PM 73.4 °F 71.6 °F 94% 29.85 in 7.0 mi Calm Calm - 0.00 in Rain Light Rain
5:34 PM 71.6 °F 69.8 °F 94% 29.85 in 2.0 mi Calm Calm - 0.04 in Rain Rain
5:44 PM 71.6 °F 69.8 °F 94% 29.85 in 10.0 mi South 4.6 mph - 0.04 in Rain Light Rain
5:54 PM 73.0 °F 70.0 °F 90% 29.82 in 10.0 mi SSW 3.5 mph - 0.04 in   Overcast
6:10 PM 73.4 °F 69.8 °F 88% 29.84 in 10.0 mi Calm Calm - N/A   Mostly Cloudy
6:20 PM 73.4 °F 69.8 °F 88% 29.84 in 10.0 mi South 3.5 mph - N/A   Mostly Cloudy
6:37 PM 73.4 °F 69.8 °F 88% 29.84 in 10.0 mi South 3.5 mph - N/A   Mostly Cloudy
6:52 PM 73.4 °F 69.8 °F 88% 29.84 in 10.0 mi South 3.5 mph - N/A   Mostly Cloudy
6:54 PM 73.0 °F 70.0 °F 90% 29.81 in 10.0 mi SSW 4.6 mph - N/A   Mostly Cloudy
7:54 PM 72.0 °F 69.1 °F 91% 29.82 in 10.0 mi SSW 4.6 mph - 0.00 in Rain Light Rain
8:50 PM 71.6 °F 69.8 °F 94% 29.85 in 10.0 mi Calm Calm - 0.01 in   Mostly Cloudy
8:54 PM 71.1 °F 69.1 °F 93% 29.83 in 10.0 mi South 4.6 mph - 0.01 in   Mostly Cloudy
9:52 PM 71.6 °F 69.8 °F 94% 29.86 in 10.0 mi South 5.8 mph - N/A   Overcast
9:54 PM 71.1 °F 69.1 °F 93% 29.84 in 10.0 mi South 4.6 mph - N/A   Overcast
10:54 PM 70.0 °F 68.0 °F 93% 29.85 in 10.0 mi South 8.1 mph - N/A   Overcast
11:01 PM 69.8 °F 68.0 °F 94% 29.87 in 10.0 mi South 6.9 mph - N/A   Overcast
11:37 PM 69.8 °F 66.2 °F 88% 29.87 in 10.0 mi South 4.6 mph - 0.00 in Rain Light Rain
11:54 PM 69.1 °F 66.9 °F 93% 29.85 in 5.0 mi South 3.5 mph - 0.01 in Rain Light Rain